{"data":{"norad_id":60036,"epoch":"2026-09-21T07:58:15.886848Z","epoch_age_seconds":105909,"freshness":"FRESH","line1":"1 60036U 24111W   26264.33212832 -.00000659  00000+0 -83743-5 0  9999","line2":"2 60036  53.1598 245.7212 0001377  86.3818 273.7342 15.34388933128942","mean_motion":15.34388933,"eccentricity":0.0001377,"inclination_deg":53.1598,"raan_deg":245.7212,"arg_perigee_deg":86.3818,"mean_anomaly_deg":273.7342,"bstar":-8.3743e-6,"rev_number":12894,"period_min":93.848434971735,"perigee_km":461.79414563054,"apogee_km":463.67812209161,"semimajor_km":6840.8731338611,"source":"CELESTRAK","updated_at":"2026-09-22T09:00:49.141117Z"}}